Year,Month,Day,Hour,Minute,Value (Times are PST for barometer in hPa)
2015,02,07,00,00,991.25
2015,02,07,00,01,991.25
2015,02,07,00,02,991.19
2015,02,07,00,03,991.24
2015,02,07,00,04,991.22
2015,02,07,00,05,991.19
2015,02,07,00,06,991.26
2015,02,07,00,07,991.31
2015,02,07,00,08,991.33
2015,02,07,00,09,991.36
2015,02,07,00,10,991.40
2015,02,07,00,11,991.40
2015,02,07,00,12,991.37
2015,02,07,00,13,991.32
2015,02,07,00,14,991.30
2015,02,07,00,15,991.30
2015,02,07,00,16,991.27
2015,02,07,00,17,991.22
2015,02,07,00,18,991.18
2015,02,07,00,19,991.18
2015,02,07,00,20,991.21
2015,02,07,00,21,991.26
2015,02,07,00,22,991.33
2015,02,07,00,23,991.34
2015,02,07,00,24,991.28
2015,02,07,00,25,991.28
2015,02,07,00,26,991.31
2015,02,07,00,27,991.33
2015,02,07,00,28,991.33
2015,02,07,00,29,991.36
2015,02,07,00,30,991.37
2015,02,07,00,31,991.35
2015,02,07,00,32,991.39
2015,02,07,00,33,991.43
2015,02,07,00,34,991.43
2015,02,07,00,35,991.43
2015,02,07,00,36,991.41
2015,02,07,00,37,991.39
2015,02,07,00,38,991.45
2015,02,07,00,39,991.46
2015,02,07,00,40,991.43
2015,02,07,00,41,991.38
2015,02,07,00,42,991.28
2015,02,07,00,43,991.26
2015,02,07,00,44,991.28
2015,02,07,00,45,991.31
2015,02,07,00,46,991.33
2015,02,07,00,47,991.36
2015,02,07,00,48,991.39
2015,02,07,00,49,991.35
2015,02,07,00,50,991.33
2015,02,07,00,51,991.32
2015,02,07,00,52,991.34
2015,02,07,00,53,991.37
2015,02,07,00,54,991.36
2015,02,07,00,55,991.39
2015,02,07,00,56,991.38
2015,02,07,00,57,991.35
2015,02,07,00,58,991.25
2015,02,07,00,59,991.23
2015,02,07,01,00,991.27
2015,02,07,01,01,991.35
2015,02,07,01,02,991.34
2015,02,07,01,03,991.31
2015,02,07,01,04,991.32
2015,02,07,01,05,991.30
2015,02,07,01,06,991.30
2015,02,07,01,07,991.31
2015,02,07,01,08,991.36
2015,02,07,01,09,991.40
2015,02,07,01,10,991.41
2015,02,07,01,11,991.42
2015,02,07,01,12,991.37
2015,02,07,01,13,991.33
2015,02,07,01,14,991.30
2015,02,07,01,15,991.26
2015,02,07,01,16,991.26
2015,02,07,01,17,991.28
2015,02,07,01,18,991.33
2015,02,07,01,19,991.41
2015,02,07,01,20,991.49
2015,02,07,01,21,991.53
2015,02,07,01,22,991.53
2015,02,07,01,23,991.52
2015,02,07,01,24,991.45
2015,02,07,01,25,991.37
2015,02,07,01,26,991.38
2015,02,07,01,27,991.39
2015,02,07,01,28,991.43
2015,02,07,01,29,991.53
2015,02,07,01,30,991.53
2015,02,07,01,31,991.52
2015,02,07,01,32,991.50
2015,02,07,01,33,991.49
2015,02,07,01,34,991.47
2015,02,07,01,35,991.48
2015,02,07,01,36,991.53
2015,02,07,01,37,991.57
2015,02,07,01,38,991.57
2015,02,07,01,39,991.57
2015,02,07,01,40,991.55
2015,02,07,01,41,991.53
2015,02,07,01,42,991.58
2015,02,07,01,43,991.61
2015,02,07,01,44,991.55
2015,02,07,01,45,991.59
2015,02,07,01,46,991.67
2015,02,07,01,47,991.68
2015,02,07,01,48,991.69
2015,02,07,01,49,991.68
2015,02,07,01,50,991.68
2015,02,07,01,51,991.61
2015,02,07,01,52,991.54
2015,02,07,01,53,991.51
2015,02,07,01,54,991.53
2015,02,07,01,55,991.52
2015,02,07,01,56,991.51
2015,02,07,01,57,991.56
2015,02,07,01,58,991.61
2015,02,07,01,59,991.61
2015,02,07,02,00,991.57
2015,02,07,02,01,991.58
2015,02,07,02,02,991.59
2015,02,07,02,03,991.58
2015,02,07,02,04,991.59
2015,02,07,02,05,991.60
2015,02,07,02,06,991.60
2015,02,07,02,07,991.53
2015,02,07,02,08,991.55
2015,02,07,02,09,991.58
2015,02,07,02,10,991.57
2015,02,07,02,11,991.56
2015,02,07,02,12,991.56
2015,02,07,02,13,991.50
2015,02,07,02,14,991.50
2015,02,07,02,15,991.47
2015,02,07,02,16,991.46
2015,02,07,02,17,991.51
2015,02,07,02,18,991.53
2015,02,07,02,19,991.53
2015,02,07,02,20,991.53
2015,02,07,02,21,991.51
2015,02,07,02,22,991.46
2015,02,07,02,23,991.45
2015,02,07,02,24,991.46
2015,02,07,02,25,991.43
2015,02,07,02,26,991.43
2015,02,07,02,27,991.41
2015,02,07,02,28,991.38
2015,02,07,02,29,991.37
2015,02,07,02,30,991.33
2015,02,07,02,31,991.35
2015,02,07,02,32,991.35
2015,02,07,02,33,991.33
2015,02,07,02,34,991.33
2015,02,07,02,35,991.35
2015,02,07,02,36,991.38
2015,02,07,02,37,991.39
2015,02,07,02,38,991.37
2015,02,07,02,39,991.39
2015,02,07,02,40,991.45
2015,02,07,02,41,991.45
2015,02,07,02,42,991.43
2015,02,07,02,43,991.43
2015,02,07,02,44,991.45
2015,02,07,02,45,991.46
2015,02,07,02,46,991.45
2015,02,07,02,47,991.45
2015,02,07,02,48,991.42
2015,02,07,02,49,991.40
2015,02,07,02,50,991.41
2015,02,07,02,51,991.43
2015,02,07,02,52,991.43
2015,02,07,02,53,991.45
2015,02,07,02,54,991.45
2015,02,07,02,55,991.43
2015,02,07,02,56,991.42
2015,02,07,02,57,991.41
2015,02,07,02,58,991.39
2015,02,07,02,59,991.36
2015,02,07,03,00,991.40
2015,02,07,03,01,991.40
2015,02,07,03,02,991.40
2015,02,07,04,02,991.43
2015,02,07,04,03,991.45
2015,02,07,04,04,991.42
2015,02,07,04,05,991.40
2015,02,07,04,06,991.40
2015,02,07,04,07,991.39
2015,02,07,04,08,991.40
2015,02,07,04,09,991.39
2015,02,07,04,10,991.32
2015,02,07,04,11,991.28
2015,02,07,04,12,991.29
2015,02,07,04,13,991.32
2015,02,07,04,14,991.33
2015,02,07,04,15,991.34
2015,02,07,04,16,991.27
2015,02,07,04,17,991.26
2015,02,07,04,18,991.28
2015,02,07,04,19,991.31
2015,02,07,04,20,991.37
2015,02,07,04,21,991.40
2015,02,07,04,22,991.39
2015,02,07,04,23,991.37
2015,02,07,04,24,991.40
2015,02,07,04,25,991.35
2015,02,07,04,26,991.36
2015,02,07,04,27,991.39
2015,02,07,04,28,991.38
2015,02,07,04,29,991.37
2015,02,07,04,30,991.33
2015,02,07,04,31,991.33
2015,02,07,04,32,991.33
2015,02,07,04,33,991.33
2015,02,07,04,34,991.30
2015,02,07,04,35,991.26
2015,02,07,04,36,991.29
2015,02,07,04,37,991.32
2015,02,07,04,38,991.30
2015,02,07,04,39,991.31
2015,02,07,04,40,991.30
2015,02,07,04,41,991.28
2015,02,07,04,42,991.30
2015,02,07,04,43,991.30
2015,02,07,04,44,991.30
2015,02,07,04,45,991.27
2015,02,07,04,46,991.22
2015,02,07,04,47,991.21
2015,02,07,04,48,991.23
2015,02,07,04,49,991.24
2015,02,07,04,50,991.25
2015,02,07,04,51,991.22
2015,02,07,04,52,991.18
2015,02,07,04,53,991.16
2015,02,07,04,54,991.18
2015,02,07,04,55,991.20
2015,02,07,04,56,991.23
2015,02,07,04,57,991.26
2015,02,07,04,58,991.26
2015,02,07,04,59,991.22
2015,02,07,05,00,991.18
2015,02,07,05,01,991.20
2015,02,07,05,02,991.20
2015,02,07,05,03,991.23
2015,02,07,05,04,991.26
2015,02,07,05,05,991.29
2015,02,07,05,06,991.32
2015,02,07,05,07,991.28
2015,02,07,05,08,991.29
2015,02,07,05,09,991.36
2015,02,07,05,10,991.39
2015,02,07,05,11,991.37
2015,02,07,05,12,991.37
2015,02,07,05,13,991.40
2015,02,07,05,14,991.43
2015,02,07,05,15,991.45
2015,02,07,05,16,991.45
2015,02,07,05,17,991.46
2015,02,07,05,18,991.50
2015,02,07,05,19,991.50
2015,02,07,05,20,991.49
2015,02,07,05,21,991.48
2015,02,07,05,22,991.49
2015,02,07,05,23,991.45
2015,02,07,05,24,991.42
2015,02,07,05,25,991.41
2015,02,07,05,26,991.40
2015,02,07,05,27,991.38
2015,02,07,05,28,991.39
2015,02,07,05,29,991.37
2015,02,07,05,30,991.37
2015,02,07,05,31,991.34
2015,02,07,05,32,991.31
2015,02,07,05,33,991.33
2015,02,07,05,34,991.32
2015,02,07,05,35,991.33
2015,02,07,05,36,991.35
2015,02,07,05,37,991.35
2015,02,07,05,38,991.37
2015,02,07,05,39,991.37
2015,02,07,05,40,991.35
2015,02,07,05,41,991.35
2015,02,07,05,42,991.37
2015,02,07,05,43,991.38
2015,02,07,05,44,991.40
2015,02,07,05,45,991.41
2015,02,07,05,46,991.40
2015,02,07,05,47,991.40
2015,02,07,05,48,991.43
2015,02,07,05,49,991.45
2015,02,07,05,50,991.47
2015,02,07,05,51,991.45
2015,02,07,05,52,991.45
2015,02,07,05,53,991.50
2015,02,07,05,54,991.56
2015,02,07,05,55,991.63
2015,02,07,05,56,991.64
2015,02,07,05,57,991.62
2015,02,07,05,58,991.65
2015,02,07,05,59,991.64
2015,02,07,06,00,991.62
2015,02,07,06,01,991.62
2015,02,07,06,02,991.60
2015,02,07,06,03,991.60
2015,02,07,06,04,991.63
2015,02,07,06,05,991.66
2015,02,07,06,06,991.65
2015,02,07,06,07,991.66
2015,02,07,06,08,991.65
2015,02,07,06,09,991.68
2015,02,07,06,10,991.70
2015,02,07,06,11,991.69
2015,02,07,06,12,991.68
2015,02,07,06,13,991.69
2015,02,07,06,14,991.70
2015,02,07,06,15,991.74
2015,02,07,06,16,991.75
2015,02,07,06,17,991.79
2015,02,07,06,18,991.82
2015,02,07,06,19,991.84
2015,02,07,06,20,991.85
2015,02,07,06,21,991.86
2015,02,07,06,22,991.84
2015,02,07,06,23,991.84
2015,02,07,06,24,991.85
2015,02,07,06,25,991.89
2015,02,07,06,26,991.89
2015,02,07,06,27,991.89
2015,02,07,06,28,991.89
2015,02,07,06,29,991.87
2015,02,07,06,30,991.89
2015,02,07,06,31,991.89
2015,02,07,06,32,991.90
2015,02,07,06,33,991.94
2015,02,07,06,34,991.96
2015,02,07,06,35,991.98
2015,02,07,06,36,991.95
2015,02,07,06,37,991.92
2015,02,07,06,38,991.94
2015,02,07,06,39,991.97
2015,02,07,06,40,992.00
2015,02,07,06,41,991.98
2015,02,07,06,42,991.96
2015,02,07,06,43,991.94
2015,02,07,06,44,991.94
2015,02,07,06,45,991.94
2015,02,07,06,46,991.98
2015,02,07,06,47,992.03
2015,02,07,06,48,992.04
2015,02,07,06,49,992.06
2015,02,07,06,50,992.06
2015,02,07,06,51,992.05
2015,02,07,06,52,992.02
2015,02,07,06,53,992.04
2015,02,07,06,54,992.06
2015,02,07,06,55,992.06
2015,02,07,06,56,992.08
2015,02,07,06,57,992.14
2015,02,07,06,58,992.16
2015,02,07,06,59,992.18
2015,02,07,07,00,992.21
2015,02,07,07,01,992.22
2015,02,07,07,02,992.19
2015,02,07,07,03,992.23
2015,02,07,07,04,992.23
2015,02,07,07,05,992.23
2015,02,07,07,06,992.26
2015,02,07,07,07,992.29
2015,02,07,07,08,992.30
2015,02,07,07,09,992.27
2015,02,07,07,10,992.29
2015,02,07,07,11,992.36
2015,02,07,07,12,992.38
2015,02,07,07,13,992.40
2015,02,07,07,14,992.43
2015,02,07,07,15,992.44
2015,02,07,07,16,992.40
2015,02,07,07,17,992.40
2015,02,07,07,18,992.43
2015,02,07,07,19,992.45
2015,02,07,07,20,992.45
2015,02,07,07,21,992.44
2015,02,07,07,22,992.43
2015,02,07,07,23,992.46
2015,02,07,07,24,992.51
2015,02,07,07,25,992.52
2015,02,07,07,26,992.51
2015,02,07,07,27,992.56
2015,02,07,07,28,992.58
2015,02,07,07,29,992.61
2015,02,07,07,30,992.65
2015,02,07,07,31,992.69
2015,02,07,07,32,992.75
2015,02,07,07,33,992.78
2015,02,07,07,34,992.82
2015,02,07,07,35,992.81
2015,02,07,07,36,992.82
2015,02,07,07,37,992.86
2015,02,07,07,38,992.86
2015,02,07,07,39,992.86
2015,02,07,07,40,992.84
2015,02,07,07,41,992.82
2015,02,07,07,42,992.85
2015,02,07,07,43,992.89
2015,02,07,07,44,992.92
2015,02,07,07,45,992.96
2015,02,07,07,46,992.96
2015,02,07,07,47,992.94
2015,02,07,07,48,992.95
2015,02,07,07,49,993.02
2015,02,07,07,50,993.05
2015,02,07,07,51,993.04
2015,02,07,07,52,993.07
2015,02,07,07,53,993.08
2015,02,07,07,54,993.07
2015,02,07,07,55,993.08
2015,02,07,07,56,993.09
2015,02,07,07,57,993.14
2015,02,07,07,58,993.15
2015,02,07,07,59,993.13
2015,02,07,08,00,993.16
2015,02,07,08,01,993.19
2015,02,07,08,02,993.18
2015,02,07,08,03,993.17
2015,02,07,08,04,993.18
2015,02,07,08,05,993.17
2015,02,07,08,06,993.21
2015,02,07,08,07,993.24
2015,02,07,08,08,993.28
2015,02,07,08,09,993.31
2015,02,07,08,10,993.32
2015,02,07,08,11,993.30
2015,02,07,08,12,993.31
2015,02,07,08,13,993.33
2015,02,07,08,14,993.33
2015,02,07,08,15,993.32
2015,02,07,08,16,993.30
2015,02,07,08,17,993.31
2015,02,07,08,18,993.34
2015,02,07,08,19,993.36
2015,02,07,08,20,993.38
2015,02,07,08,21,993.38
2015,02,07,08,22,993.38
2015,02,07,08,23,993.41
2015,02,07,08,24,993.42
2015,02,07,08,25,993.40
2015,02,07,08,26,993.41
2015,02,07,08,27,993.45
2015,02,07,08,28,993.47
2015,02,07,08,29,993.48
2015,02,07,08,30,993.50
2015,02,07,08,31,993.53
2015,02,07,08,32,993.57
2015,02,07,08,33,993.57
2015,02,07,08,34,993.60
2015,02,07,08,35,993.63
2015,02,07,08,36,993.63
2015,02,07,08,37,993.65
2015,02,07,08,38,993.65
2015,02,07,08,39,993.62
2015,02,07,08,40,993.63
2015,02,07,08,41,993.65
2015,02,07,08,42,993.65
2015,02,07,08,43,993.68
2015,02,07,08,44,993.72
2015,02,07,08,45,993.72
2015,02,07,08,46,993.73
2015,02,07,08,47,993.77
2015,02,07,08,48,993.77
2015,02,07,08,49,993.78
2015,02,07,08,50,993.80
2015,02,07,08,51,993.82
2015,02,07,08,52,993.81
2015,02,07,08,53,993.78
2015,02,07,08,54,993.82
2015,02,07,08,55,993.84
2015,02,07,08,56,993.84
2015,02,07,08,57,993.87
2015,02,07,08,58,993.92
2015,02,07,08,59,993.95
2015,02,07,09,00,993.99
2015,02,07,09,01,994.01
2015,02,07,09,02,994.03
2015,02,07,09,03,994.06
2015,02,07,09,04,994.07
2015,02,07,09,05,994.09
2015,02,07,09,06,994.10
2015,02,07,09,07,994.14
2015,02,07,09,08,994.17
2015,02,07,09,09,994.21
2015,02,07,09,10,994.21
2015,02,07,09,11,994.24
2015,02,07,09,12,994.28
2015,02,07,09,13,994.28
2015,02,07,09,14,994.28
2015,02,07,09,15,994.29
2015,02,07,09,16,994.34
2015,02,07,09,17,994.37
2015,02,07,09,18,994.37
2015,02,07,09,19,994.40
2015,02,07,09,20,994.42
2015,02,07,09,21,994.48
2015,02,07,09,22,994.50
2015,02,07,09,23,994.52
2015,02,07,09,24,994.52
2015,02,07,09,25,994.53
2015,02,07,09,26,994.56
2015,02,07,09,27,994.60
2015,02,07,09,28,994.60
2015,02,07,09,29,994.61
2015,02,07,09,30,994.65
2015,02,07,09,31,994.66
2015,02,07,09,32,994.70
2015,02,07,09,33,994.72
2015,02,07,09,34,994.73
2015,02,07,09,35,994.74
2015,02,07,09,36,994.73
2015,02,07,09,37,994.75
2015,02,07,09,38,994.77
2015,02,07,09,39,994.80
2015,02,07,09,40,994.82
2015,02,07,09,41,994.82
2015,02,07,09,42,994.85
2015,02,07,09,43,994.89
2015,02,07,09,44,994.90
2015,02,07,09,45,994.94
2015,02,07,09,46,994.94
2015,02,07,09,47,994.91
2015,02,07,09,48,994.90
2015,02,07,09,49,994.94
2015,02,07,09,50,994.94
2015,02,07,09,51,994.95
2015,02,07,09,52,994.99
2015,02,07,09,53,994.99
2015,02,07,09,54,994.98
2015,02,07,09,55,994.96
2015,02,07,09,56,994.97
2015,02,07,09,57,994.99
2015,02,07,09,58,995.02
2015,02,07,09,59,995.03
2015,02,07,10,00,995.00
2015,02,07,10,01,995.05
2015,02,07,10,02,995.06
2015,02,07,10,03,995.05
2015,02,07,10,04,995.10
2015,02,07,10,05,995.11
2015,02,07,10,06,995.09
2015,02,07,10,07,995.12
2015,02,07,10,08,995.16
2015,02,07,10,09,995.14
2015,02,07,10,10,995.17
2015,02,07,10,11,995.23
2015,02,07,10,12,995.23
2015,02,07,10,13,995.23
2015,02,07,10,14,995.25
2015,02,07,10,15,995.29
2015,02,07,10,16,995.31
2015,02,07,10,17,995.34
2015,02,07,10,18,995.36
2015,02,07,10,19,995.36
2015,02,07,10,20,995.38
2015,02,07,10,21,995.41
2015,02,07,10,22,995.42
2015,02,07,10,23,995.41
2015,02,07,10,24,995.42
2015,02,07,10,25,995.43
2015,02,07,10,26,995.46
2015,02,07,10,27,995.46
2015,02,07,10,28,995.46
2015,02,07,10,29,995.49
2015,02,07,10,30,995.53
2015,02,07,10,31,995.53
2015,02,07,10,32,995.53
2015,02,07,10,33,995.53
2015,02,07,10,34,995.54
2015,02,07,10,35,995.56
2015,02,07,10,36,995.56
2015,02,07,10,37,995.56
2015,02,07,10,38,995.58
2015,02,07,10,39,995.61
2015,02,07,10,40,995.65
2015,02,07,10,41,995.68
2015,02,07,10,42,995.70
2015,02,07,10,43,995.73
2015,02,07,10,44,995.75
2015,02,07,10,45,995.73
2015,02,07,10,46,995.76
2015,02,07,10,47,995.77
2015,02,07,10,48,995.76
2015,02,07,10,49,995.80
2015,02,07,10,50,995.82
2015,02,07,10,51,995.84
2015,02,07,10,52,995.88
2015,02,07,10,53,995.94
2015,02,07,10,54,995.94
2015,02,07,10,55,995.97
2015,02,07,10,56,996.02
2015,02,07,10,57,996.04
2015,02,07,10,58,996.05
2015,02,07,10,59,996.07
2015,02,07,11,00,996.09
2015,02,07,11,01,996.11
2015,02,07,11,02,996.15
2015,02,07,11,03,996.19
2015,02,07,11,04,996.17
2015,02,07,11,05,996.22
2015,02,07,11,06,996.26
2015,02,07,11,07,996.26
2015,02,07,11,08,996.26
2015,02,07,11,09,996.24
2015,02,07,11,10,996.24
2015,02,07,11,11,996.26
2015,02,07,11,12,996.30
2015,02,07,11,13,996.34
2015,02,07,11,14,996.34
2015,02,07,11,15,996.36
2015,02,07,11,16,996.38
2015,02,07,11,17,996.42
2015,02,07,11,18,996.47
2015,02,07,11,19,996.48
2015,02,07,11,20,996.50
2015,02,07,11,21,996.51
2015,02,07,11,22,996.55
2015,02,07,11,23,996.58
2015,02,07,11,24,996.63
2015,02,07,11,25,996.66
2015,02,07,11,26,996.70
2015,02,07,11,27,996.72
2015,02,07,11,28,996.72
2015,02,07,11,29,996.72
2015,02,07,11,30,996.73
2015,02,07,11,31,996.75
2015,02,07,11,32,996.75
2015,02,07,11,33,996.76
2015,02,07,11,34,996.78
2015,02,07,11,35,996.81
2015,02,07,11,36,996.84
2015,02,07,11,37,996.85
2015,02,07,11,38,996.87
2015,02,07,11,39,996.88
2015,02,07,11,40,996.92
2015,02,07,11,41,996.93
2015,02,07,11,42,996.95
2015,02,07,11,43,996.97
2015,02,07,11,44,997.00
2015,02,07,11,45,997.03
2015,02,07,11,46,997.04
2015,02,07,11,47,997.03
2015,02,07,11,48,997.05
2015,02,07,11,49,997.05
2015,02,07,11,50,997.07
2015,02,07,11,51,997.12
2015,02,07,11,52,997.17
2015,02,07,11,53,997.16
2015,02,07,11,54,997.14
2015,02,07,11,55,997.16
2015,02,07,11,56,997.17
2015,02,07,11,57,997.20
2015,02,07,11,58,997.22
2015,02,07,11,59,997.24
2015,02,07,12,00,997.27
2015,02,07,12,01,997.32
2015,02,07,12,02,997.35
2015,02,07,12,03,997.31
2015,02,07,12,04,997.28
2015,02,07,12,05,997.27
2015,02,07,12,06,997.29
2015,02,07,12,07,997.31
2015,02,07,12,08,997.33
2015,02,07,12,09,997.35
2015,02,07,12,10,997.38
2015,02,07,12,11,997.39
2015,02,07,12,12,997.43
2015,02,07,12,13,997.44
2015,02,07,12,14,997.46
2015,02,07,12,15,997.48
2015,02,07,12,16,997.51
2015,02,07,12,17,997.54
2015,02,07,12,18,997.56
2015,02,07,12,19,997.56
2015,02,07,12,20,997.55
2015,02,07,12,21,997.54
2015,02,07,12,22,997.56
2015,02,07,12,23,997.59
2015,02,07,12,24,997.62
2015,02,07,12,25,997.64
2015,02,07,12,26,997.71
2015,02,07,12,27,997.75
2015,02,07,12,28,997.78
2015,02,07,12,29,997.81
2015,02,07,12,30,997.83
2015,02,07,12,31,997.85
2015,02,07,12,32,997.90
2015,02,07,12,33,997.94
2015,02,07,12,34,997.95
2015,02,07,12,35,997.97
2015,02,07,12,36,997.97
2015,02,07,12,37,998.00
2015,02,07,12,38,998.04
2015,02,07,12,39,998.04
2015,02,07,12,40,998.04
2015,02,07,12,41,998.05
2015,02,07,12,42,998.06
2015,02,07,12,43,998.04
2015,02,07,12,44,998.01
2015,02,07,12,45,997.94
2015,02,07,12,46,997.89
2015,02,07,12,47,997.84
2015,02,07,12,48,997.79
2015,02,07,12,49,997.74
2015,02,07,12,50,997.73
2015,02,07,12,51,997.78
2015,02,07,12,52,997.84
2015,02,07,12,53,997.94
2015,02,07,12,54,998.00
2015,02,07,12,55,998.02
2015,02,07,12,56,998.05
2015,02,07,12,57,998.10
2015,02,07,12,58,998.12
2015,02,07,12,59,998.09
2015,02,07,13,00,998.04
2015,02,07,13,01,998.02
2015,02,07,13,02,998.03
2015,02,07,13,03,998.00
2015,02,07,13,04,998.02
2015,02,07,13,05,998.04
2015,02,07,13,06,998.04
2015,02,07,13,07,998.02
2015,02,07,13,08,998.00
2015,02,07,13,09,998.02
2015,02,07,13,10,998.02
2015,02,07,13,11,998.02
2015,02,07,13,12,998.06
2015,02,07,13,13,998.12
2015,02,07,13,14,998.15
2015,02,07,13,15,998.18
2015,02,07,13,16,998.21
2015,02,07,13,17,998.23
2015,02,07,13,18,998.25
2015,02,07,13,19,998.22
2015,02,07,13,20,998.25
2015,02,07,13,21,998.29
2015,02,07,13,22,998.32
2015,02,07,13,23,998.33
2015,02,07,13,24,998.32
2015,02,07,13,25,998.34
2015,02,07,13,26,998.37
2015,02,07,13,27,998.42
2015,02,07,13,28,998.47
2015,02,07,13,29,998.52
2015,02,07,13,30,998.56
2015,02,07,13,31,998.59
2015,02,07,13,32,998.63
2015,02,07,13,33,998.63
2015,02,07,13,34,998.61
2015,02,07,13,35,998.61
2015,02,07,13,36,998.60
2015,02,07,13,37,998.59
2015,02,07,13,38,998.64
2015,02,07,13,39,998.67
2015,02,07,13,40,998.62
2015,02,07,13,41,998.58
2015,02,07,13,42,998.56
2015,02,07,13,43,998.56
2015,02,07,13,44,998.59
2015,02,07,13,45,998.64
2015,02,07,13,46,998.69
2015,02,07,13,47,998.74
2015,02,07,13,48,998.80
2015,02,07,13,49,998.83
2015,02,07,13,50,998.85
2015,02,07,13,51,998.86
2015,02,07,13,52,998.88
2015,02,07,13,53,998.90
2015,02,07,13,54,998.92
2015,02,07,13,55,998.93
2015,02,07,13,56,998.95
2015,02,07,13,57,998.99
2015,02,07,13,58,999.04
2015,02,07,13,59,999.03
2015,02,07,14,00,999.08
2015,02,07,14,01,999.15
2015,02,07,14,02,999.16
2015,02,07,14,03,999.15
2015,02,07,14,04,999.19
2015,02,07,14,05,999.16
2015,02,07,14,06,999.16
2015,02,07,14,07,999.22
2015,02,07,14,08,999.24
2015,02,07,14,09,999.24
2015,02,07,14,10,999.22
2015,02,07,14,11,999.22
2015,02,07,14,12,999.25
2015,02,07,14,13,999.28
2015,02,07,14,14,999.26
2015,02,07,14,15,999.26
2015,02,07,14,16,999.27
2015,02,07,14,17,999.29
2015,02,07,14,18,999.29
2015,02,07,14,19,999.29
2015,02,07,14,20,999.29
2015,02,07,14,21,999.28
2015,02,07,14,22,999.26
2015,02,07,14,23,999.26
2015,02,07,14,24,999.27
2015,02,07,14,25,999.28
2015,02,07,14,26,999.30
2015,02,07,14,27,999.37
2015,02,07,14,28,999.38
2015,02,07,14,29,999.36
2015,02,07,14,30,999.36
2015,02,07,14,31,999.37
2015,02,07,14,32,999.41
2015,02,07,14,33,999.41
2015,02,07,14,34,999.41
2015,02,07,14,35,999.44
2015,02,07,14,36,999.46
2015,02,07,14,37,999.49
2015,02,07,14,38,999.53
2015,02,07,14,39,999.52
2015,02,07,14,40,999.52
2015,02,07,14,41,999.57
2015,02,07,14,42,999.62
2015,02,07,14,43,999.68
2015,02,07,14,44,999.72
2015,02,07,14,45,999.78
2015,02,07,14,46,999.81
2015,02,07,14,47,999.85
2015,02,07,14,48,999.87
2015,02,07,14,49,999.88
2015,02,07,14,50,999.89
2015,02,07,14,51,999.89
2015,02,07,14,52,999.96
2015,02,07,14,53,999.99
2015,02,07,14,54,999.97
2015,02,07,14,55,999.97
2015,02,07,14,56,999.98
2015,02,07,14,57,1000.00
2015,02,07,14,58,1000.01
2015,02,07,14,59,1000.04
2015,02,07,15,00,1000.07
2015,02,07,15,01,1000.10
2015,02,07,15,02,1000.12
2015,02,07,15,03,1000.12
2015,02,07,15,04,1000.14
2015,02,07,15,05,1000.14
2015,02,07,15,06,1000.15
2015,02,07,15,07,1000.18
2015,02,07,15,08,1000.19
2015,02,07,15,09,1000.20
2015,02,07,15,10,1000.25
2015,02,07,15,11,1000.30
2015,02,07,15,12,1000.34
2015,02,07,15,13,1000.34
2015,02,07,15,14,1000.38
2015,02,07,15,15,1000.43
2015,02,07,15,16,1000.42
2015,02,07,15,17,1000.44
2015,02,07,15,18,1000.46
2015,02,07,15,19,1000.48
2015,02,07,15,20,1000.49
2015,02,07,15,21,1000.51
2015,02,07,15,22,1000.52
2015,02,07,15,23,1000.54
2015,02,07,15,24,1000.54
2015,02,07,15,25,1000.56
2015,02,07,15,26,1000.55
2015,02,07,15,27,1000.51
2015,02,07,15,28,1000.51
2015,02,07,15,29,1000.51
2015,02,07,15,30,1000.51
2015,02,07,15,31,1000.52
2015,02,07,15,32,1000.52
2015,02,07,15,33,1000.50
2015,02,07,15,34,1000.54
2015,02,07,15,35,1000.54
2015,02,07,15,36,1000.53
2015,02,07,15,37,1000.51
2015,02,07,15,38,1000.52
2015,02,07,15,39,1000.54
2015,02,07,15,40,1000.53
2015,02,07,15,41,1000.51
2015,02,07,15,42,1000.52
2015,02,07,15,43,1000.54
2015,02,07,15,44,1000.54
2015,02,07,15,45,1000.54
2015,02,07,15,46,1000.56
2015,02,07,15,47,1000.58
2015,02,07,15,48,1000.59
2015,02,07,15,49,1000.61
2015,02,07,15,50,1000.61
2015,02,07,15,51,1000.61
2015,02,07,15,52,1000.61
2015,02,07,15,53,1000.60
2015,02,07,15,54,1000.60
2015,02,07,15,55,1000.64
2015,02,07,15,56,1000.63
2015,02,07,15,57,1000.64
2015,02,07,15,58,1000.68
2015,02,07,15,59,1000.69
2015,02,07,16,00,1000.70
2015,02,07,16,01,1000.69
2015,02,07,16,02,1000.70
2015,02,07,16,03,1000.69
2015,02,07,16,04,1000.73
2015,02,07,16,05,1000.76
2015,02,07,16,06,1000.79
2015,02,07,16,07,1000.80
2015,02,07,16,08,1000.78
2015,02,07,16,09,1000.78
2015,02,07,16,10,1000.79
2015,02,07,16,11,1000.81
2015,02,07,16,12,1000.80
2015,02,07,16,13,1000.81
2015,02,07,16,14,1000.85
2015,02,07,16,15,1000.84
2015,02,07,16,16,1000.82
2015,02,07,16,17,1000.86
2015,02,07,16,18,1000.91
2015,02,07,16,19,1000.92
2015,02,07,16,20,1000.92
2015,02,07,16,21,1001.00
2015,02,07,16,22,1001.02
2015,02,07,16,23,1001.00
2015,02,07,16,24,1001.01
2015,02,07,16,25,1001.04
2015,02,07,16,26,1001.02
2015,02,07,16,27,1001.02
2015,02,07,16,28,1001.02
2015,02,07,16,29,1001.03
2015,02,07,16,30,1001.05
2015,02,07,16,31,1001.05
2015,02,07,16,32,1001.05
2015,02,07,16,33,1001.06
2015,02,07,16,34,1001.08
2015,02,07,16,35,1001.10
2015,02,07,16,36,1001.13
2015,02,07,16,37,1001.14
2015,02,07,16,38,1001.12
2015,02,07,16,39,1001.13
2015,02,07,16,40,1001.17
2015,02,07,16,41,1001.19
2015,02,07,16,42,1001.20
2015,02,07,16,43,1001.22
2015,02,07,16,44,1001.22
2015,02,07,16,45,1001.22
2015,02,07,16,46,1001.25
2015,02,07,16,47,1001.28
2015,02,07,16,48,1001.25
2015,02,07,16,49,1001.25
2015,02,07,16,50,1001.27
2015,02,07,16,51,1001.29
2015,02,07,16,52,1001.29
2015,02,07,16,53,1001.29
2015,02,07,16,54,1001.29
2015,02,07,16,55,1001.29
2015,02,07,16,56,1001.29
2015,02,07,16,57,1001.30
2015,02,07,16,58,1001.32
2015,02,07,16,59,1001.35
2015,02,07,17,00,1001.38
2015,02,07,17,01,1001.36
2015,02,07,17,02,1001.38
2015,02,07,17,03,1001.44
2015,02,07,17,04,1001.46
2015,02,07,17,05,1001.47
2015,02,07,17,06,1001.48
2015,02,07,17,07,1001.48
2015,02,07,17,08,1001.54
2015,02,07,17,09,1001.54
2015,02,07,17,10,1001.55
2015,02,07,17,11,1001.59
2015,02,07,17,12,1001.59
2015,02,07,17,13,1001.59
2015,02,07,17,14,1001.58
2015,02,07,17,15,1001.56
2015,02,07,17,16,1001.56
2015,02,07,17,17,1001.56
2015,02,07,17,18,1001.55
2015,02,07,17,19,1001.54
2015,02,07,17,20,1001.54
2015,02,07,17,21,1001.51
2015,02,07,17,22,1001.49
2015,02,07,17,23,1001.48
2015,02,07,17,24,1001.47
2015,02,07,17,25,1001.48
2015,02,07,17,26,1001.47
2015,02,07,17,27,1001.50
2015,02,07,17,28,1001.52